Weather History for KAXA - February, 2012

Change the Weather History Date:

Tuesday, February 21, 2012

  Actual Average Record
Temperature  
Mean Temperature 34 °F -  
Max Temperature 37 °F 31 °F 50 °F (2000)
Min Temperature 30 °F 17 °F -9 °F (2001)
Degree Days  
Heating Degree Days 32    
Moisture  
Dew Point 31 °F    
Average Humidity 87    
Maximum Humidity 100    
Minimum Humidity 70    
Precipitation  
Precipitation 0.08 in - - ()
Sea Level Pressure  
Sea Level Pressure 29.65 in    
Wind  
Wind Speed 15 mph (West)    
Max Wind Speed 29 mph    
Max Gust Speed 33 mph    
Visibility 9 miles    
Events Rain , Snow    
Averages and records for this station are not official NWS values.
T = Trace of Precipitation, MM = Missing Value Source: NWS Daily Summary

Daily Weather History Graph

Daily Weather History Graph

Search for Another Location

Airport or City:

Trip Planner

Search our weather history database for the weather conditions in past years. The results will help you decide how hot, cold, wet, or windy it might be!

Date:

Astronomy

Feb. 21, 2012 Rise Set
Actual Time 7:06 AM CST 5:55 PM CST
Civil Twilight 6:37 AM CST 6:24 PM CST
Nautical Twilight 6:04 AM CST 6:57 PM CST
Astronomical Twilight 5:31 AM CST 7:30 PM CST
Moon 6:34 AM CST (2/21) 6:04 PM CST (2/21)
Length of Visible Light 11h 46m
Length of Day
10h 48m
Waning Crescent, 0% of the Moon is Illuminated
Feb 21
Waning Crescent
Feb 21
New
Feb 29
First Quarter
Mar 8
Full
Mar 14
Last Quarter

Hourly Weather History & Observations

Time (CST) Temp. Windchill Dew Point Humidity Pressure Visibility Wind Dir Wind Speed Gust Speed Precip Events Conditions
12:15 AM 33.8 °F 23.9 °F 33.8 °F 100% 29.59 in 7.0 mi SSE 15.0 mph - N/A   Overcast
12:35 AM 33.8 °F 24.8 °F 33.8 °F 100% 29.60 in 7.0 mi SSE 12.7 mph - 0.01 in   Overcast
12:55 AM 33.8 °F 25.3 °F 33.8 °F 100% 29.60 in 4.0 mi South 11.5 mph - 0.02 in Snow Light Snow
1:15 AM 33.8 °F 25.3 °F 33.8 °F 100% 29.61 in 5.0 mi South 11.5 mph - 0.01 in Rain Light Rain
1:35 AM 33.8 °F 25.8 °F 33.8 °F 100% 29.60 in 4.0 mi South 10.4 mph - 0.02 in Snow Light Snow
1:55 AM 33.8 °F 26.4 °F 33.8 °F 100% 29.59 in 3.0 mi South 9.2 mph - 0.02 in Snow Light Snow
2:15 AM 33.8 °F 27.7 °F 33.8 °F 100% 29.58 in 4.0 mi SSW 6.9 mph - N/A Rain Light Rain
2:35 AM 33.8 °F 26.4 °F 33.8 °F 100% 29.57 in 3.0 mi SSW 9.2 mph - 0.01 in Rain Light Rain
2:55 AM 33.8 °F 26.4 °F 33.8 °F 100% 29.56 in 2.0 mi SSW 9.2 mph - 0.02 in Rain Light Rain
3:35 AM 33.8 °F 24.3 °F 33.8 °F 100% 29.57 in 4.0 mi West 13.8 mph - 0.01 in   Overcast
3:55 AM 33.8 °F 24.3 °F 33.8 °F 100% 29.58 in 7.0 mi WNW 13.8 mph 19.6 mph 0.02 in   Overcast
4:15 AM 33.8 °F 24.8 °F 33.8 °F 100% 29.58 in 10.0 mi WNW 12.7 mph 19.6 mph N/A   Overcast
4:35 AM 33.8 °F 24.8 °F 33.8 °F 100% 29.58 in 10.0 mi WNW 12.7 mph - N/A   Overcast
4:55 AM 33.8 °F 24.8 °F 32.0 °F 93% 29.59 in 10.0 mi WNW 12.7 mph 19.6 mph N/A   Overcast
5:15 AM 35.6 °F 25.9 °F 32.0 °F 87% 29.60 in 10.0 mi WNW 16.1 mph 23.0 mph N/A   Overcast
5:35 AM 33.8 °F 24.8 °F 32.0 °F 93% 29.60 in 10.0 mi WNW 12.7 mph 19.6 mph N/A   Overcast
6:15 AM 33.8 °F 24.3 °F 32.0 °F 93% 29.60 in 10.0 mi West 13.8 mph 18.4 mph N/A   Clear
6:35 AM 33.8 °F 23.9 °F 32.0 °F 93% 29.61 in 10.0 mi West 15.0 mph - N/A   Clear
6:55 AM 33.8 °F 22.5 °F 30.2 °F 87% 29.61 in 10.0 mi West 19.6 mph 23.0 mph N/A   Clear
7:15 AM 33.8 °F 23.2 °F 30.2 °F 87% 29.62 in 10.0 mi West 17.3 mph 26.5 mph N/A   Mostly Cloudy
7:35 AM 33.8 °F 22.2 °F 32.0 °F 93% 29.64 in 10.0 mi West 20.7 mph 27.6 mph N/A   Overcast
7:55 AM 33.8 °F 22.8 °F 32.0 °F 93% 29.64 in 10.0 mi West 18.4 mph - N/A   Overcast
8:15 AM 33.8 °F 23.2 °F 33.8 °F 100% 29.64 in 10.0 mi West 17.3 mph - N/A   Overcast
8:35 AM 33.8 °F 23.9 °F 32.0 °F 93% 29.65 in 10.0 mi West 15.0 mph - N/A   Overcast
8:55 AM 33.8 °F 23.5 °F 30.2 °F 87% 29.65 in 10.0 mi West 16.1 mph - N/A   Scattered Clouds
9:15 AM 33.8 °F 23.2 °F 30.2 °F 87% 29.65 in 10.0 mi West 17.3 mph - N/A   Clear
9:35 AM 33.8 °F 21.3 °F 30.2 °F 87% 29.65 in 10.0 mi West 24.2 mph 28.8 mph N/A   Clear
9:55 AM 33.8 °F 22.2 °F 30.2 °F 87% 29.66 in 10.0 mi West 20.7 mph - N/A   Clear
10:15 AM 33.8 °F 22.2 °F 30.2 °F 87% 29.66 in 10.0 mi West 20.7 mph - N/A   Clear
10:35 AM 35.6 °F 25.2 °F 30.2 °F 81% 29.67 in 10.0 mi West 18.4 mph - N/A   Clear
10:55 AM 35.6 °F 23.7 °F 30.2 °F 81% 29.67 in 10.0 mi West 24.2 mph 28.8 mph N/A   Clear
11:15 AM 35.6 °F 24.5 °F 32.0 °F 87% 29.68 in 10.0 mi West 20.7 mph 27.6 mph N/A   Clear
11:35 AM 35.6 °F 24.0 °F 30.2 °F 81% 29.68 in 10.0 mi West 23.0 mph 31.1 mph N/A   Clear
11:55 AM 37.4 °F 26.6 °F 32.0 °F 81% 29.68 in 10.0 mi West 21.9 mph - N/A   Clear
12:15 PM 37.4 °F 26.1 °F 32.0 °F 81% 29.68 in 10.0 mi West 24.2 mph 31.1 mph N/A   Clear
12:35 PM 35.6 °F 23.7 °F 30.2 °F 81% 29.68 in 10.0 mi West 24.2 mph 32.2 mph N/A   Scattered Clouds
12:55 PM 35.6 °F 23.2 °F 30.2 °F 81% 29.67 in 10.0 mi West 26.5 mph 33.4 mph N/A   Mostly Cloudy
1:15 PM 35.6 °F 22.7 °F 32.0 °F 87% 29.67 in 10.0 mi West 28.8 mph 32.2 mph N/A   Mostly Cloudy
1:35 PM 35.6 °F 23.7 °F 30.2 °F 81% 29.67 in 10.0 mi West 24.2 mph 32.2 mph N/A   Mostly Cloudy
1:55 PM 35.6 °F 23.4 °F 30.2 °F 81% 29.67 in 10.0 mi West 25.3 mph 33.4 mph N/A   Mostly Cloudy
2:15 PM 37.4 °F 26.4 °F 30.2 °F 75% 29.67 in 10.0 mi West 23.0 mph 33.4 mph N/A   Mostly Cloudy
2:35 PM 35.6 °F 23.4 °F 28.4 °F 75% 29.67 in 10.0 mi West 25.3 mph 31.1 mph N/A   Scattered Clouds
2:55 PM 35.6 °F 23.2 °F 28.4 °F 75% 29.68 in 10.0 mi West 26.5 mph 29.9 mph N/A   Scattered Clouds
3:15 PM 35.6 °F 24.2 °F 28.4 °F 75% 29.68 in 10.0 mi West 21.9 mph 29.9 mph N/A   Scattered Clouds
3:35 PM 37.4 °F 26.1 °F 28.4 °F 70% 29.69 in 10.0 mi West 24.2 mph 28.8 mph N/A   Scattered Clouds
3:55 PM 35.6 °F 24.5 °F 28.4 °F 75% 29.69 in 10.0 mi West 20.7 mph 27.6 mph N/A   Scattered Clouds
4:15 PM 37.4 °F 26.9 °F 28.4 °F 70% 29.69 in 10.0 mi West 20.7 mph 27.6 mph N/A   Scattered Clouds
4:35 PM 37.4 °F 28.2 °F 28.4 °F 70% 29.69 in 10.0 mi West 16.1 mph - N/A   Scattered Clouds
4:55 PM 35.6 °F 25.9 °F 26.6 °F 70% 29.69 in 10.0 mi West 16.1 mph - N/A   Clear
5:15 PM 35.6 °F 27.1 °F 26.6 °F 70% 29.70 in 10.0 mi West 12.7 mph - N/A   Clear
5:35 PM 35.6 °F 26.2 °F 28.4 °F 75% 29.69 in 10.0 mi West 15.0 mph - N/A   Clear
5:55 PM 33.8 °F 24.3 °F 28.4 °F 81% 29.69 in 10.0 mi West 13.8 mph - N/A   Clear
6:15 PM 33.8 °F 24.8 °F 26.6 °F 75% 29.70 in 10.0 mi WSW 12.7 mph - N/A   Clear
7:15 PM 33.8 °F 25.8 °F 28.4 °F 81% 29.69 in 10.0 mi WSW 10.4 mph - N/A   Clear
7:35 PM 33.8 °F 26.4 °F 28.4 °F 81% 29.69 in 10.0 mi WSW 9.2 mph - N/A   Clear
7:55 PM 32.0 °F 24.8 °F 28.4 °F 87% 29.69 in 10.0 mi WSW 8.1 mph - N/A   Clear
8:15 PM 32.0 °F 26.4 °F 28.4 °F 87% 29.68 in 10.0 mi WSW 5.8 mph - N/A   Clear
8:35 PM 30.2 °F 24.3 °F 28.4 °F 93% 29.68 in 10.0 mi WSW 5.8 mph - N/A   Clear
8:55 PM 30.2 °F 22.6 °F 28.4 °F 93% 29.67 in 10.0 mi SW 8.1 mph - N/A   Clear
9:15 PM 33.8 °F 25.3 °F 26.6 °F 75% 29.66 in 10.0 mi SW 11.5 mph - N/A   Scattered Clouds
9:35 PM 33.8 °F 25.3 °F 28.4 °F 81% 29.66 in 10.0 mi SW 11.5 mph - N/A   Mostly Cloudy
9:55 PM 32.0 °F 23.6 °F 28.4 °F 87% 29.65 in 10.0 mi SSW 10.4 mph - N/A   Mostly Cloudy
10:15 PM 30.2 °F 20.8 °F 28.4 °F 93% 29.64 in 10.0 mi SSW 11.5 mph - N/A   Clear
10:35 PM 30.2 °F 20.8 °F 28.4 °F 93% 29.63 in 10.0 mi SSW 11.5 mph - N/A   Scattered Clouds
10:55 PM 30.2 °F 21.3 °F 28.4 °F 93% 29.62 in 10.0 mi SSW 10.4 mph - N/A   Scattered Clouds
11:15 PM 32.0 °F 24.2 °F 26.6 °F 80% 29.61 in 10.0 mi SSW 9.2 mph - N/A   Scattered Clouds
11:35 PM 32.0 °F 25.6 °F 26.6 °F 80% 29.60 in 10.0 mi SW 6.9 mph - N/A   Scattered Clouds
11:55 PM 32.0 °F 24.2 °F 26.6 °F 80% 29.60 in 10.0 mi SSW 9.2 mph - N/A   Clear